TimeEDT,TemperatureF,Dew PointF,Humidity,Sea Level PressureIn,VisibilityMPH,Wind Direction,Wind SpeedMPH,Gust SpeedMPH,PrecipitationIn,Events,Conditions,WindDirDegrees,DateUTC
12:53 AM,78.1,72.0,81,29.85,10.0,SSW,8.1,-,N/A,,Clear,210,2013-07-23 04:53:00
1:53 AM,77.0,72.0,84,29.84,9.0,SSW,6.9,-,N/A,,Clear,200,2013-07-23 05:53:00
2:53 AM,75.9,72.0,87,29.82,10.0,SSW,9.2,-,N/A,,Clear,200,2013-07-23 06:53:00
3:53 AM,75.9,72.0,87,29.81,10.0,SSW,10.4,-,N/A,,Clear,210,2013-07-23 07:53:00
4:53 AM,75.0,72.0,90,29.81,10.0,SW,9.2,-,N/A,,Clear,220,2013-07-23 08:53:00
5:53 AM,75.0,72.0,90,29.82,10.0,SW,11.5,-,N/A,,Partly Cloudy,220,2013-07-23 09:53:00
6:37 AM,75.2,71.6,89,29.84,10.0,SW,10.4,-,N/A,,Mostly Cloudy,230,2013-07-23 10:37:00
6:53 AM,75.9,72.0,87,29.83,10.0,SW,11.5,-,N/A,,Overcast,220,2013-07-23 10:53:00
7:53 AM,77.0,73.0,88,29.84,10.0,SW,12.7,-,N/A,,Overcast,230,2013-07-23 11:53:00
8:07 AM,78.8,73.4,83,29.85,10.0,SW,10.4,-,N/A,,Mostly Cloudy,220,2013-07-23 12:07:00
8:28 AM,78.8,73.4,83,29.85,10.0,SW,12.7,-,N/A,,Overcast,220,2013-07-23 12:28:00
8:53 AM,79.0,72.0,79,29.83,10.0,WSW,15.0,-,N/A,,Overcast,250,2013-07-23 12:53:00
9:06 AM,80.6,71.6,74,29.85,10.0,WSW,10.4,19.6,N/A,,Mostly Cloudy,250,2013-07-23 13:06:00
9:53 AM,82.0,72.0,71,29.82,10.0,SW,13.8,19.6,N/A,,Mostly Cloudy,230,2013-07-23 13:53:00
10:31 AM,84.2,71.6,66,29.84,10.0,WSW,10.4,-,N/A,,Scattered Clouds,250,2013-07-23 14:31:00
10:53 AM,84.9,71.1,63,29.82,10.0,WSW,12.7,-,N/A,,Scattered Clouds,240,2013-07-23 14:53:00
11:53 AM,87.1,71.1,59,29.81,10.0,Variable,5.8,-,N/A,,Partly Cloudy,0,2013-07-23 15:53:00
12:53 PM,90.0,70.0,52,29.80,10.0,SW,11.5,18.4,N/A,,Scattered Clouds,230,2013-07-23 16:53:00
1:53 PM,90.0,71.1,54,29.79,10.0,Variable,5.8,-,N/A,,Mostly Cloudy,0,2013-07-23 17:53:00
2:53 PM,91.0,70.0,50,29.77,10.0,WSW,9.2,-,N/A,,Mostly Cloudy,250,2013-07-23 18:53:00
3:53 PM,89.1,69.1,52,29.75,10.0,WNW,15.0,20.7,N/A,,Mostly Cloudy,290,2013-07-23 19:53:00
4:53 PM,89.1,71.1,55,29.73,10.0,West,5.8,-,0.00,,Partly Cloudy,280,2013-07-23 20:53:00
5:53 PM,91.0,71.1,52,29.73,10.0,West,10.4,-,N/A,,Mostly Cloudy,280,2013-07-23 21:53:00
6:53 PM,90.0,66.9,46,29.73,10.0,WNW,6.9,-,N/A,,Clear,290,2013-07-23 22:53:00
7:53 PM,87.1,70.0,57,29.74,10.0,WSW,5.8,-,N/A,,Clear,250,2013-07-23 23:53:00
8:53 PM,82.9,71.1,67,29.74,10.0,WSW,3.5,-,N/A,,Clear,240,2013-07-24 00:53:00
9:53 PM,80.1,73.0,79,29.78,10.0,SW,5.8,-,N/A,,Clear,220,2013-07-24 01:53:00
10:53 PM,80.1,72.0,76,29.78,10.0,WSW,4.6,-,N/A,,Clear,240,2013-07-24 02:53:00
11:53 PM,78.1,72.0,81,29.78,10.0,WSW,4.6,-,N/A,,Clear,240,2013-07-24 03:53:00